Date,TemperatureHighF,TemperatureAvgF,TemperatureLowF,DewpointHighF,DewpointAvgF,DewpointLowF,HumidityHigh,HumidityAvg,HumidityLow,PressureMaxIn,PressureMinIn,WindSpeedMaxMPH,WindSpeedAvgMPH,GustSpeedMaxMPH,PrecipitationSumIn
2013-1-1,45,40,36,44,38,29,99,91,75,30.36,30.07,16,7,21,0.00
2013-1-2,40,36,32,32,30,28,89,79,72,30.41,30.31,9,4,14,0.00
2013-1-3,51,41,30,33,30,27,92,67,44,30.52,30.39,11,4,16,0.00
2013-1-4,50,44,39,35,32,30,78,63,49,30.58,30.41,7,2,8,0.00
2013-1-5,52,46,40,41,39,30,96,78,64,30.46,30.25,9,4,16,0.00
2013-1-6,55,45,34,40,31,25,98,61,32,30.46,30.33,11,4,15,0.00
2013-1-7,55,46,34,36,31,22,65,55,41,30.39,30.14,12,4,15,0.00
2013-1-8,49,48,47,48,43,34,99,85,56,30.15,30.01,10,5,16,0.93
2013-1-9,57,54,49,56,53,49,99,99,97,30.17,29.94,25,9,35,0.34
2013-1-10,62,56,51,57,51,47,99,87,67,30.02,29.92,17,7,23,0.13
2013-1-11,72,62,51,65,52,45,96,71,42,29.99,29.77,17,8,26,0.04
2013-1-12,67,54,36,66,52,30,99,93,79,30.02,29.69,22,8,32,0.15
2013-1-13,42,36,31,30,24,18,82,61,48,30.35,30.00,17,10,26,0.00
2013-1-14,45,36,28,27,21,15,65,54,40,30.42,30.26,14,7,20,0.00
2013-1-15,38,35,30,30,25,19,96,69,52,30.32,30.21,15,7,21,0.00
2013-1-16,49,39,26,27,20,15,76,50,29,30.36,30.20,12,3,16,0.00
2013-1-19,64,58,53,48,46,45,75,67,49,30.25,30.16,11,5,15,0.00
2013-1-20,68,57,44,48,44,39,95,65,40,30.25,30.08,11,4,14,0.00
2013-1-21,58,49,40,46,34,25,87,57,41,30.35,30.15,13,5,19,0.00
2013-1-22,65,52,38,51,39,24,77,60,46,30.36,30.19,11,4,14,0.00
2013-1-23,73,63,53,58,54,50,91,72,52,30.29,30.13,15,6,19,0.00
2013-1-24,77,65,55,61,56,49,94,74,53,30.20,30.03,13,5,16,0.00
2013-1-25,68,49,45,52,45,40,99,86,72,30.25,30.05,14,5,20,0.00
2013-1-26,53,49,45,51,47,40,99,94,76,30.27,30.13,11,4,15,0.00
2013-1-27,75,63,49,65,58,49,99,86,58,30.14,29.92,20,8,27,0.00
2013-1-28,78,72,68,67,65,64,91,79,63,30.01,29.83,22,10,30,0.11
2013-1-29,79,67,55,68,60,32,95,78,40,29.85,29.44,22,10,34,0.32
2013-1-30,55,48,43,39,27,16,75,45,25,30.18,29.69,24,10,34,0.25
2013-1-31,71,53,38,31,24,20,64,37,15,30.38,30.09,21,6,31,0.09
2013-2-1,60,47,31,40,27,16,56,46,32,30.46,30.19,17,6,24,0.00
2013-2-2,73,59,50,47,38,29,81,49,25,30.36,30.16,13,6,20,0.01
2013-2-3,73,58,42,43,31,24,80,42,17,30.37,30.00,14,4,17,0.00
2013-2-4,72,62,56,58,47,27,85,60,28,30.01,29.80,16,8,115,0.18
2013-2-5,60,59,57,60,58,57,99,99,97,30.04,30.02,8,4,12,0.17
2013-2-6,74,64,56,65,59,52,99,86,46,30.04,29.86,17,8,23,0.00
2013-2-7,80,65,54,60,55,39,99,75,26,30.15,29.79,22,10,36,0.00
2013-2-8,64,54,43,46,34,20,84,53,19,30.30,30.14,14,6,21,0.00
2013-2-9,59,52,48,59,48,37,99,88,56,30.17,29.75,21,10,27,0.00
2013-2-10,69,61,52,64,38,22,99,52,17,30.05,29.65,26,7,33,0.39
2013-2-11,57,52,48,41,33,26,77,49,35,30.20,30.03,16,7,24,0.00
2013-2-12,50,47,41,49,46,41,99,95,77,30.08,29.88,17,6,22,0.32
2013-2-13,58,47,39,42,38,33,98,73,41,30.20,30.04,17,5,22,0.00
2013-2-14,69,56,42,42,37,28,90,54,23,30.14,30.01,8,3,11,0.00
2013-2-15,54,48,38,40,28,14,73,48,24,30.44,30.13,20,8,27,0.00
2013-2-16,57,45,32,32,26,21,72,50,27,30.47,30.21,11,4,14,0.00
2013-2-17,70,57,43,48,33,23,67,44,17,30.21,29.91,22,9,31,0.00
2013-2-18,78,62,51,59,46,32,85,58,26,30.16,29.75,24,11,33,0.00
2013-2-19,61,53,42,33,25,18,57,37,22,30.37,30.15,15,6,20,0.00
2013-2-20,53,45,41,42,38,30,92,79,42,30.24,29.82,18,10,24,0.10
2013-2-21,68,52,42,51,40,25,99,69,20,29.98,29.62,22,9,36,0.06
2013-2-22,48,40,32,39,28,20,89,61,46,30.22,29.96,14,6,21,0.00
2013-2-23,54,44,32,32,27,24,73,54,35,30.15,29.96,11,4,14,0.00
2013-2-24,69,56,41,45,38,31,76,54,28,29.97,29.61,21,9,27,0.00
2013-2-25,61,52,40,52,41,28,86,68,37,29.70,29.47,26,11,40,0.06
2013-2-26,58,48,40,36,34,30,80,60,36,29.94,29.70,27,11,42,0.01
2013-2-27,56,47,37,34,28,16,86,50,22,30.28,29.91,21,9,28,0.00
2013-2-28,58,46,35,31,27,18,79,50,23,30.34,30.19,21,8,27,0.00
2013-3-1,54,44,33,34,29,26,77,57,36,30.36,30.22,15,6,20,0.00
2013-3-2,54,43,32,30,24,17,75,50,26,30.49,30.27,17,7,23,0.00
2013-3-3,71,57,42,44,29,20,52,35,21,30.27,29.80,24,10,34,0.00
2013-3-4,88,70,56,51,43,31,66,43,13,29.81,29.56,23,10,33,0.00
2013-3-5,63,51,44,46,25,14,71,40,21,30.43,29.81,31,12,45,0.04
2013-3-6,62,50,37,25,21,15,56,33,20,30.51,30.23,11,4,16,0.00
2013-3-7,70,59,47,42,25,18,79,27,15,30.27,30.10,21,9,25,0.00
2013-3-8,64,59,55,59,53,38,97,79,43,30.22,29.99,21,10,27,0.00
2013-3-9,70,64,59,67,62,57,99,91,79,30.00,29.66,23,10,30,0.28
2013-3-10,59,51,42,59,40,30,99,68,49,30.14,29.74,24,9,35,0.24
2013-3-11,60,47,34,34,26,15,87,50,21,30.17,30.02,14,5,21,0.00
2013-3-12,67,56,44,33,25,20,51,31,20,30.34,30.07,13,5,18,0.00
2013-3-13,70,59,45,39,33,28,65,41,22,30.48,30.32,10,4,13,0.00
2013-3-14,78,65,53,48,40,31,58,42,29,30.38,30.17,17,8,24,0.00
2013-3-15,82,70,58,56,49,39,85,51,22,30.19,29.89,20,9,27,0.00
2013-3-16,80,71,59,60,55,48,86,59,44,29.89,29.68,21,11,30,0.00
2013-3-17,72,68,60,64,56,49,90,68,49,29.80,29.67,17,7,26,0.00
2013-3-18,69,63,57,65,48,37,99,61,41,30.04,29.65,19,8,28,0.00
2013-3-19,68,59,49,44,37,31,75,46,31,30.17,29.98,16,7,22,0.00
2013-3-20,68,60,49,37,31,22,62,36,18,30.34,30.06,14,5,18,0.00
2013-3-21,70,62,54,60,44,27,79,52,34,30.06,29.57,21,11,31,0.00
2013-3-22,67,54,46,63,51,44,99,91,65,29.90,29.57,16,7,22,0.00
2013-3-23,54,50,46,51,49,45,99,96,86,29.88,29.69,17,5,24,0.12
2013-3-24,52,46,39,49,29,17,99,56,29,30.23,29.86,29,13,43,0.00
2013-3-25,53,43,32,26,19,13,69,40,22,30.45,30.23,20,7,27,0.00
2013-3-26,59,46,34,24,19,14,52,34,22,30.56,30.33,10,3,13,0.00
2013-3-27,70,58,43,45,31,20,52,37,24,30.35,30.09,21,9,28,0.00
2013-3-28,70,63,51,59,53,23,87,70,34,30.35,30.09,17,9,24,0.00
2013-3-29,78,68,61,60,58,57,89,72,50,30.21,30.02,21,9,26,0.00
2013-3-30,78,68,57,65,62,57,99,81,61,30.12,29.88,17,6,24,0.36
2013-3-31,74,68,60,66,58,50,99,73,45,30.00,29.80,22,6,30,0.00
2013-4-1,80,69,56,53,49,45,83,52,30,30.09,29.93,11,4,14,0.00
2013-4-2,71,66,52,65,59,45,96,80,54,30.05,29.90,21,8,30,0.00
2013-4-3,54,48,44,51,46,43,99,94,74,30.20,29.97,18,7,25,0.61
2013-4-4,51,46,42,44,42,41,99,86,73,30.25,30.16,14,6,23,0.02
2013-4-5,70,56,40,51,45,40,99,70,40,30.29,30.05,11,4,14,0.00
2013-4-6,76,67,57,60,53,44,84,63,44,30.05,29.83,20,9,28,0.00
2013-4-7,74,68,51,64,61,43,90,80,70,30.19,29.73,17,9,23,0.00
2013-4-8,76,72,67,67,64,60,88,78,71,29.77,29.65,21,11,28,0.00
2013-4-9,82,75,68,70,66,64,94,76,57,29.73,29.61,21,11,30,0.00
2013-4-10,75,48,40,70,45,37,99,90,63,30.03,29.70,21,11,29,0.15
2013-4-11,63,50,40,40,34,28,83,55,33,30.03,29.83,15,5,21,0.00
2013-4-12,78,64,49,47,42,-100,79,49,1,30.02,29.87,8,3,11,27.64
2013-4-13,79,69,58,50,47,42,70,46,30,30.02,29.78,17,7,24,0.00
2013-4-14,82,71,60,68,60,49,86,68,50,29.80,29.53,18,8,24,0.00
2013-4-15,87,78,69,69,68,66,97,74,51,29.76,29.61,20,9,27,0.00
2013-4-16,88,79,72,71,68,65,88,70,49,29.90,29.76,21,9,30,0.00
2013-4-17,85,78,73,73,70,67,99,78,57,29.89,29.61,24,12,36,0.00
2013-4-18,77,55,46,74,47,34,99,76,48,30.20,29.55,23,12,33,0.67
2013-4-19,64,52,39,36,29,21,83,47,22,30.32,30.16,19,6,24,0.00
2013-4-20,71,61,50,37,31,22,54,34,16,30.23,30.02,19,7,29,0.00
2013-4-21,72,62,52,51,47,35,75,58,38,30.24,30.07,14,6,20,0.00
2013-4-22,79,69,58,61,55,47,82,61,49,30.13,29.84,20,9,27,0.00
2013-4-23,70,55,42,64,52,40,99,90,67,30.25,29.81,21,9,27,0.01
2013-4-24,63,50,39,41,35,31,98,61,31,30.37,30.22,17,7,24,0.00
2013-4-25,74,63,51,46,38,30,55,40,21,30.37,30.16,16,6,20,0.00
2013-4-26,78,69,61,69,57,44,83,68,45,30.19,29.97,15,8,24,0.00
2013-4-27,75,69,64,68,61,56,96,77,56,30.15,29.98,13,6,21,0.00
2013-4-28,83,69,56,67,61,56,99,76,52,30.06,29.84,11,4,14,0.00
2013-4-29,87,77,66,69,62,55,96,64,35,29.91,29.77,14,6,21,0.00
2013-4-30,82,73,63,66,63,58,95,71,47,29.84,29.73,17,7,23,0.00
2013-5-1,84,74,67,69,66,61,98,77,48,29.97,29.79,16,6,19,0.00
2013-5-2,89,52,43,64,48,37,99,84,73,30.38,29.96,25,12,36,28.32
2013-5-3,66,54,40,38,30,18,89,46,19,30.37,30.05,21,9,30,0.00
2013-5-4,72,61,49,42,32,20,61,37,14,30.06,29.90,24,7,30,0.00
2013-5-5,69,58,47,49,42,-100,80,59,2,30.38,28.64,21,7,120,28.32
2013-5-6,79,66,51,55,52,48,91,62,41,30.14,29.99,11,3,14,0.00
2013-5-7,85,75,62,56,54,50,73,49,30,30.08,29.92,11,5,17,0.00
2013-5-8,86,77,67,60,56,49,70,50,31,30.00,29.85,20,8,27,0.00
2013-5-9,78,70,67,69,66,58,99,86,53,29.99,29.85,17,6,27,0.22
2013-5-10,83,73,65,68,64,57,99,77,46,30.07,29.89,12,4,17,0.00
2013-5-11,81,72,60,60,52,37,94,54,21,30.19,29.98,115,6,115,28.54
2013-5-12,80,70,60,55,37,26,63,32,15,30.29,30.14,16,6,21,0.00
2013-5-13,87,75,59,54,47,38,62,39,25,30.25,30.09,14,5,20,0.00
2013-5-14,87,77,65,63,57,50,80,53,29,30.16,29.97,15,6,27,0.00
2013-5-15,78,72,63,71,68,62,99,88,64,30.05,29.72,26,9,37,0.47
2013-5-16,84,72,63,73,68,62,99,87,68,29.84,29.73,18,6,23,0.02
2013-5-17,91,82,73,76,73,72,99,78,54,29.85,29.75,24,6,30,0.00
2013-5-18,93,84,74,75,72,70,89,69,49,29.89,29.73,18,9,29,0.00
2013-5-19,90,82,72,72,70,66,89,67,52,29.83,29.64,23,11,32,0.00
2013-5-20,90,83,75,73,71,70,88,69,52,29.81,29.63,21,11,32,0.00
2013-5-21,83,73,62,73,68,61,99,85,66,29.90,29.66,24,7,37,0.56
2013-5-22,88,73,57,70,60,48,99,70,27,29.96,29.83,11,3,15,0.02
2013-5-23,86,79,72,74,72,66,99,78,64,30.06,29.88,14,6,21,0.00
2013-5-24,86,79,68,75,72,65,99,80,61,30.22,29.99,18,6,27,0.33
2013-5-25,85,74,68,74,70,66,99,88,60,30.21,30.04,17,6,27,0.22
2013-5-26,88,79,71,74,72,70,99,79,57,30.08,29.91,16,7,23,0.15
2013-5-27,87,80,73,72,70,68,90,73,55,29.99,29.77,20,9,28,0.00
2013-5-28,86,80,73,72,69,66,88,69,54,29.88,29.71,26,10,36,0.05
2013-5-29,85,78,73,75,72,69,98,84,67,29.83,29.68,25,12,36,0.12
2013-5-30,90,82,75,75,74,72,96,77,56,29.79,29.67,20,10,30,0.00
2013-5-31,91,84,78,76,74,71,90,74,54,29.83,29.66,19,10,31,0.00
2013-6-1,90,82,78,75,73,66,85,74,57,29.95,29.71,26,8,34,6.68
2013-6-2,89,78,69,66,58,43,78,52,21,30.09,29.93,15,6,18,0.00
2013-6-3,97,80,67,66,61,58,78,54,29,30.01,29.82,14,5,17,0.00
2013-6-4,97,84,74,72,68,61,79,60,42,30.01,29.76,17,9,25,37.15
2013-6-5,96,85,77,74,71,68,84,63,43,29.94,29.75,14,6,23,0.00
2013-6-6,84,77,71,74,70,67,93,79,59,29.96,29.81,14,5,19,0.29
2013-6-7,90,78,66,67,60,53,93,60,29,30.02,29.89,14,4,19,0.00
2013-12-30,35,34,33,22,21,20,63,59,56,29.77,29.76,2,-80,2,0.00
2013-12-31,54,41,28,29,24,-100,84,55,33,30.29,29.62,9,-3,9,0.00
2014-1-1,68,48,33,48,35,25,77,61,45,30.22,29.88,17,3,17,0.00
2014-1-2,41,32,24,25,19,16,74,59,41,30.50,30.22,15,3,18,0.00